[Iaude] MPEC G11: 2024 FB4 [a=2.20,e=0.53,i=30.0,H=21.0]
    mpec at cfa.harvard.edu 
    mpec at cfa.harvard.edu
       
    Tue Apr  2 21:51:32 EDT 2024
    
    
  
M.P.E.C. 2024-G11                                 Issued 2024 April 3, 01:50 UT
     The Minor Planet Electronic Circulars contain information on unusual
         minor planets, routine data on comets and natural satellites,
         and occasional editorial announcements.  They are published
    on behalf of Division F of the International Astronomical Union by the
          Minor Planet Center, Smithsonian Astrophysical Observatory,
                          Cambridge, MA 02138, U.S.A.
			  
             Prepared using the Tamkin Foundation Computer Network
                              MPC at CFA.HARVARD.EDU
            URL https://www.minorplanetcenter.net/    ISSN 1523-6714
                                    2024 FB4                                    
Observations:
     K24F04B* C2024 03 31.59083815 03 07.520+13 58 59.98         20.89wXEG011F51
     K24F04B  C2024 03 31.60161215 03 04.723+13 58 23.25         20.91wXEG011F51
     K24F04B  C2024 03 31.61231615 03 01.986+13 57 47.40         20.84wXEG011F51
     K24F04B  C2024 03 31.62314615 02 59.191+13 57 10.75         20.61wXEG011F51
     K24F04B KB2024 04 01.02601815 01 20.07 +13 34 20.9          20.6 GXEG011I93
     K24F04B KB2024 04 01.03611515 01 17.49 +13 33 47.3          20.5 GXEG011I93
     K24F04B KB2024 04 01.10481 15 01 00.27 +13 30 00.6          20.9 VqEG011Y66
     K24F04B KB2024 04 01.10609 15 00 59.97 +13 29 55.7          20.1 VqEG011Y66
     K24F04B KB2024 04 01.10666 15 00 59.84 +13 29 54.2          20.2 VqEG011Y66
     K24F04B KB2024 04 01.10717 15 00 59.70 +13 29 52.5          20.5 VqEG011Y66
     K24F04B KB2024 04 01.10768 15 00 59.57 +13 29 50.5          20.9 VqEG011Y66
     K24F04B |C2024 04 01.30008015 00 11.130+13 19 19.60         20.5 GVEG011807
     K24F04B |C2024 04 01.30455015 00 09.980+13 19 04.80         20.5 GVEG011807
     K24F04B |C2024 04 01.30888015 00 08.880+13 18 50.10         20.7 GVEG011807
     K24F04B KB2024 04 02.18842 14 56 28.48 +12 28 28.7          20.6 VqEG011Y66
     K24F04B KB2024 04 02.18957 14 56 28.19 +12 28 25.4          21.2 VqEG011Y66
     K24F04B KB2024 04 02.19071 14 56 27.91 +12 28 21.4          21.6 VqEG011Y66
     K24F04B KC2024 04 03.02081214 53 00.19 +11 40 44.5          20.5 GVEG011L01
     K24F04B KC2024 04 03.02249714 52 59.76 +11 40 38.3          20.7 GVEG011L01
     K24F04B IC2024 04 03.02439514 52 59.23 +11 40 32.0          20.9 GVEG011L01
Observer details:
807 Cerro Tololo Observatory, La Serena.  Observers T. Linder, R. Holmes.
    0.61-m f/6.8 Ritchey-Chretien + CCD.
F51 Pan-STARRS 1, Haleakala.  Observers J. Herman, T. Lowe, P. Minguez, A.
    Schultz, I. Smith.  Measurers K. Chambers, T. de Boer, J. Fairlamb, H.
    Gao, M. Huber, C.-C. Lin, E. Magnier, Y. Ramanjooloo, R. Wainscoat, R.
    Weryk.  1.8-m Ritchey-Chretien + CCD.
I93 St Pardon de Conques.  Observer F. Losse.  0.40-m f/3.7 reflector + CCD.
L01 Visnjan Observatory, Tican.  Observers K. Korlevic, L. Poropat.  Measurer
    K. Korlevic.  1.0-m f/2.9 reflector + CCD.
Y66 Two-Meter Twin Telescope, TTT2, Teide.  Observer M. R. Alarcon.
    Measurer M. Serra-Ricart.  0.80-m f/4.38 reflector + CMO.
Orbital elements:
2024 FB4                                                 Earth MOID = 0.3426 AU
Epoch 2024 Mar. 31.0 TT = JDT 2460400.5                 Veres                   
M  20.48910              (2000.0)            P               Q                  
n   0.30157114     Peri.   96.68092     -0.55973873     -0.78398929             
a   2.2022986      Node    32.45795     +0.41092816     -0.54389542             
e   0.5267696      Incl.   30.01077     +0.71960447     -0.29922997             
P   3.27           H   21.07          G   0.15           U   9                  
Residuals in seconds of arc
240331 F51  0.2+  0.0     240401 Y66  0.1+  0.4-    240402 Y66  0.3+  0.3-
240331 F51  0.1-  0.3-    240401 Y66  0.3+  0.0     240402 Y66  0.4+  0.3+
240331 F51  0.1+  0.1+    240401 Y66  0.2+  0.1+    240402 Y66  0.6+  0.2+
240331 F51  0.0   0.1+    240401 Y66  0.3+  0.2-    240403 L01  0.2+  0.1+
240401 I93  0.4-  0.1-    240401 807  0.3-  0.2-    240403 L01  0.2+  0.3-
240401 I93  0.4-  0.4+    240401 807  0.2-  0.2+    240403 L01  0.3-  0.0
240401 Y66  0.3-  0.2+    240401 807  0.1+  0.2+
Ephemeris:
2024 FB4                 a,e,i = 2.20, 0.53, 30                  q = 1.0422
Date    TT    R. A. (2000) Decl.     Delta      r    Elong.  Phase     V
2024 03 04    16 32 37.5 +33 33 56   0.4507  1.1525    99.1    58.1    21.7
...
2024 03 19    15 51 23.1 +24 32 34   0.4004  1.2355   118.0    45.3    21.3
...
2024 03 27    15 21 48.0 +18 08 43   0.3843  1.2852   131.5    35.5    21.0
...
2024 04 02    14 57 16.3 +12 39 23   0.3820  1.3244   142.9    27.1    20.8
2024 04 03    14 53 05.4 +11 42 12   0.3827  1.3310   144.8    25.6    20.8
2024 04 04    14 48 54.0 +10 44 38   0.3836  1.3377   146.8    24.2    20.7
...
2024 04 10    14 24 02.1 +04 58 01   0.3966  1.3785   158.5    15.5    20.6
...
2024 04 18    13 53 39.2 -02 14 05   0.4336  1.4341   171.1     6.2    20.5
...
2024 05 03    13 12 26.2 -12 19 56   0.5585  1.5408   158.3    14.0    21.5
M. P. C. Staff               (C) Copyright 2024 MPC           M.P.E.C. 2024-G11
    
    
More information about the Iaude
mailing list